Location: Newark
(36.7000°N, 45.1333°E)
Time: 14:39:31
(UTC+00:00)

Hubble Space Telescope - Visible Passes

Search period start: 24 January 2020 00:00
Search period end: 03 February 2020 00:00
Orbit: 536 x 540 km, 28.5° (Epoch: 23 January)

Date Brightness Start Highest point End Pass type
(mag) Time Alt. Az. Time Alt. Az. Time Alt. Az.
30 Jan 3.5 02:24:41 10° S 02:26:18 12° SSE 02:27:55 10° SE visible
31 Jan 3.3 02:13:39 11° SSW 02:15:33 14° SSE 02:17:48 10° SE visible
01 Feb 3.0 02:03:55 16° S 02:04:49 17° SSE 02:07:29 10° SE visible
02 Feb 2.8 01:54:04 19° SSE 01:54:07 19° SSE 01:57:02 10° ESE visible
02 Feb 2.5 03:31:20 10° WSW 03:34:46 26° S 03:38:13 10° ESE visible
